[[{"header":{"parameterUnit":"m.s-1","parameterCategory":1,"la1":30.2991,"la2":30.254,"lo1":-89.0895,"lo2":-89.0444,"dy":0.0017,"dx":0.0017,"nx":28,"ny":28,"refTime":"2025-02-27T09:00:00:Z","depth":0,"parameterNumber":2,"parameterNumberName":"U-component_of_WINDS"},"data":[0,0,0,0,0,0,0,0,0,0,0,0,0,0,0,0,0,0,0,0,0,0,0,0,0,0,0,0,0,0,0,0,0,0,0,0,0,0,0,0,0,0,0,0,0,0,0,0,0,0,0,0,0,0,0,0,0,0,0.8699,0.8699,0,0.8707,0.8707,0.8707,0.8737,0.8738,0.8738,0.8739,0.8744,0.8744,0.8743,0,0,0,0,0,0,0,0,0,0,0,0,0,0.8713,0.8712,0.8699,0.8699,0.8699,0.8707,0.8707,0.8707,0.8737,0.8738,0.8738,0.8739,0.8744,0.8744,0.8743,0,0,0,0,0,0,0,0,0,0,0,0,0,0.8712,0.8712,0.8699,0.8715,0.8717,0.8707,0.8707,0.8707,0.8737,0.8738,0.8739,0.874,0.8745,0.8744,0.8743,0.8717,0,0,0.8741,0.874,0,0,0,0,0,0,0,0,0.8712,0.8711,0.8713,0.8714,0.8716,0.8722,0.8713,0.871,0.8736,0.8729,0.8739,0.874,0.8736,0.8736,0.8735,0.8717,0.8718,0.8741,0.874,0.874,0.874,0,0,0,0,0,0,0,0.8712,0.8711,0.8702,0.8713,0.8715,0.8723,0.8724,0.8713,0.8726,0.873,0.8732,0.8732,0.8737,0.8735,0.8735,0.8718,0.8741,0.874,0.874,0.8739,0.8685,0.8684,0,0,0,0,0,0,0.871,0.8711,0.8702,0.8702,0.8717,0.8722,0.8723,0.8719,0.8727,0.8729,0.8732,0.8734,0.8736,0.8736,0.8735,0.8709,0.874,0.8739,0.8739,0.8685,0.8684,0.8683,0,0,0,0,0,0,0.871,0.8709,0.8702,0.8707,0.8707,0.872,0.8716,0.8718,0.8717,0.8728,0.873,0.8728,0.8737,0.8737,0.8723,0.8709,0.8739,0.8738,0.8687,0.8685,0.8684,0.8653,0,0,0,0,0,0,0.871,0.8708,0.8698,0.8707,0.8707,0.8688,0.8715,0.8718,0.8716,0.8719,0.8725,0.8727,0.8738,0.8724,0.8722,0.8709,0.8737,0.8688,0.8686,0.8684,0.8655,0.865,0.8646,0,0,0,0,0,0.8711,0.8688,0.8697,0.8696,0.8694,0.8687,0.8687,0.8701,0.8715,0.8705,0.8713,0.8727,0.8711,0.8722,0.872,0.8706,0.8689,0.8687,0.8684,0.8657,0.8651,0.8646,0,0,0,0,0,0,0.8675,0.8689,0.87,0.8679,0.8682,0.8692,0.868,0.8694,0.8692,0.8694,0.8711,0.8712,0.8697,0.87,0.8712,0.8684,0.8703,0.87,0.8682,0.8677,0.8673,0.8672,0.8737,0,0,0,0,0,0.8665,0.8658,0.8671,0.8651,0.8652,0.8666,0.8663,0.8674,0.8678,0.8679,0.8685,0.8688,0.8684,0.8681,0.8677,0.8656,0.8659,0.8646,0.8642,0.8638,0.8636,0.8628,0.8623,0.8676,0.8676,0.8676,0,0,0.8643,0.865,0.8644,0.8644,0.8648,0.8642,0.8667,0.8658,0.8654,0.8677,0.8665,0.8671,0.8675,0.8658,0.8651,0.8661,0.8622,0.8635,0.8632,0.8632,0.8626,0.8621,0.8616,0.8674,0.8675,0.8675,0,0,0.8601,0.8605,0.8591,0.8595,0.8601,0.8611,0.8608,0.8617,0.8622,0.8611,0.863,0.8626,0.8617,0.8621,0.8622,0.8587,0.86,0.8585,0.8562,0.8555,0.8551,0.8547,0.8537,0.8533,0.8583,0.8582,0.8582,0,0.8573,0.8564,0.8582,0.8573,0.8574,0.8597,0.8584,0.8587,0.8591,0.8591,0.8602,0.8596,0.86,0.8586,0.8579,0.8578,0.8576,0.8584,0.855,0.8547,0.8544,0.8534,0.853,0.8581,0.8581,0.8581,0.8581,0,0.8531,0.8525,0.8513,0.8519,0.8519,0.8507,0.8524,0.8522,0.8534,0.8543,0.8534,0.8541,0.8541,0.8539,0.8549,0.8528,0.8534,0.8547,0.8566,0.8537,0.8528,0.8524,0.8578,0.8579,0.8579,0.858,0,0,0.8464,0.8483,0.8478,0.8483,0.8494,0.849,0.8481,0.8483,0.8482,0.8485,0.848,0.8475,0.8489,0.849,0.8502,0.8495,0.8471,0.851,0.851,0.8504,0.8451,0.8441,0.8436,0.848,0.848,0.8479,0.8451,0,0.8425,0.8412,0.843,0.8413,0.8409,0.8434,0.8427,0.8434,0.8443,0.8442,0.8453,0.845,0.8468,0.8469,0.8464,0.8475,0.846,0.8477,0.8477,0.8476,0.8475,0.8432,0.842,0.8393,0.8448,0.8447,0.8447,0,0.8377,0.8381,0.8365,0.8381,0.838,0.8373,0.8379,0.8377,0.8386,0.8394,0.8398,0.8413,0.8408,0.8427,0.8421,0.8432,0.8433,0.8439,0.8439,0.8439,0.846,0.8432,0.8385,0.8381,0.8441,0.8442,0.8442,0,0.8332,0.8333,0.8325,0.8328,0.8345,0.8341,0.8348,0.8358,0.836,0.8365,0.8366,0.837,0.8372,0.8376,0.8393,0.8404,0.8386,0.8405,0.8393,0.8393,0.8387,0.8387,0.8341,0.8387,0.8387,0.8387,0.8387,0,0.8288,0.8277,0.8305,0.83,0.829,0.8311,0.8301,0.831,0.832,0.8318,0.834,0.8337,0.836,0.8361,0.8374,0.8369,0.8369,0.8376,0.838,0.8375,0.8374,0.8376,0.8378,0.8386,0.8387,0.8387,0.8387,0,0.8235,0.8253,0.8246,0.8264,0.8269,0.8261,0.8278,0.8274,0.8287,0.8285,0.8285,0.8305,0.8308,0.8326,0.8331,0.8341,0.8331,0.8338,0.8328,0.8331,0.8319,0.832,0.8271,0.8267,0.8315,0.8315,0.8314,0,0.8205,0.8198,0.8217,0.8218,0.8225,0.8226,0.8229,0.8251,0.8253,0.8266,0.8261,0.8266,0.8271,0.8274,0.8289,0.8295,0.8303,0.8286,0.8304,0.83,0.8305,0.8305,0.8306,0.8282,0.8281,0.8281,0.828,0,0.8151,0.8162,0.8165,0.8173,0.8176,0.8183,0.8191,0.8191,0.8215,0.8217,0.8221,0.8225,0.8233,0.8238,0.8248,0.8256,0.8273,0.8275,0.8273,0.8267,0.8263,0.8267,0.8319,0.8275,0.8276,0.8276,0.8277,0.8277,0.811,0.8107,0.8121,0.8125,0.8134,0.8143,0.8142,0.8156,0.816,0.8169,0.8182,0.8185,0.8198,0.8213,0.8221,0.8224,0.8233,0.8229,0.8229,0.8228,0.8226,0.8262,0.8226,0.8226,0.8226,0.8226,0.8226,0,0.8059,0.8071,0.8075,0.8087,0.8091,0.8108,0.8119,0.8122,0.8124,0.8136,0.8141,0.8148,0.8154,0.8172,0.8181,0.818,0.8189,0.8182,0.8182,0.8185,0.8216,0.8218,0.8175,0.8175,0.8175,0.8175,0.8176,0.8176,0.8033,0.8029,0.8042,0.8044,0.8056,0.8059,0.8065,0.8073,0.8083,0.809,0.8096,0.8108,0.8123,0.8134,0.8141,0.8147,0.8149,0.8141,0.8148,0.8177,0.8182,0.8186,0.8188,0.8141,0.8141,0.8117,0.8117,0.8117]},{"header":{"parameterUnit":"m.s-1","parameterCategory":1,"la1":30.2991,"la2":30.254,"lo1":-89.0895,"lo2":-89.0444,"dy":0.0017,"dx":0.0017,"nx":28,"ny":28,"refTime":"2025-02-27T09:00:00:Z","depth":0,"parameterNumber":3,"parameterNumberName":"V-component_of_WINDS"},"data":[0,0,0,0,0,0,0,0,0,0,0,0,0,0,0,0,0,0,0,0,0,0,0,0,0,0,0,0,0,0,0,0,0,0,0,0,0,0,0,0,0,0,0,0,0,0,0,0,0,0,0,0,0,0,0,0,0,0,-0.5507,-0.5506,0,-0.5474,-0.5473,-0.5473,-0.5471,-0.5472,-0.5472,-0.5472,-0.5434,-0.5433,-0.5432,0,0,0,0,0,0,0,0,0,0,0,0,0,-0.5565,-0.5564,-0.5507,-0.5506,-0.5506,-0.5474,-0.5473,-0.5473,-0.5471,-0.5472,-0.5472,-0.5473,-0.5435,-0.5433,-0.5431,0,0,0,0,0,0,0,0,0,0,0,0,0,-0.5537,-0.5564,-0.5507,-0.5501,-0.5501,-0.5474,-0.5473,-0.5473,-0.5471,-0.5472,-0.5472,-0.5473,-0.5435,-0.5433,-0.5431,-0.5406,0,0,-0.5425,-0.5424,0,0,0,0,0,0,0,0,-0.5538,-0.5534,-0.5503,-0.5502,-0.5501,-0.5477,-0.548,-0.545,-0.5471,-0.5482,-0.5472,-0.5473,-0.5448,-0.5445,-0.5437,-0.5405,-0.5403,-0.5425,-0.5423,-0.5423,-0.5422,0,0,0,0,0,0,0,-0.554,-0.5536,-0.5493,-0.5502,-0.5501,-0.5499,-0.5496,-0.5474,-0.5462,-0.5481,-0.5481,-0.5477,-0.5447,-0.5439,-0.5436,-0.5402,-0.5425,-0.5423,-0.5422,-0.5421,-0.5347,-0.5346,0,0,0,0,0,0,-0.5544,-0.5537,-0.5495,-0.5493,-0.5521,-0.5498,-0.5494,-0.5484,-0.5462,-0.5459,-0.5477,-0.5477,-0.5442,-0.5439,-0.5435,-0.5403,-0.5423,-0.5421,-0.5419,-0.5348,-0.5347,-0.5346,0,0,0,0,0,0,-0.5545,-0.554,-0.5496,-0.5515,-0.5509,-0.5496,-0.5485,-0.5483,-0.5475,-0.5459,-0.5456,-0.5471,-0.5443,-0.5438,-0.5414,-0.5402,-0.542,-0.5418,-0.5348,-0.5347,-0.5346,-0.5341,0,0,0,0,0,0,-0.5547,-0.554,-0.5532,-0.5515,-0.5508,-0.5476,-0.5484,-0.5482,-0.5472,-0.5472,-0.5453,-0.545,-0.5443,-0.5417,-0.5411,-0.5399,-0.5416,-0.5349,-0.5348,-0.5347,-0.5342,-0.5339,-0.5338,0,0,0,0,0,-0.5549,-0.5531,-0.5531,-0.5526,-0.5497,-0.5476,-0.5472,-0.5465,-0.5471,-0.5461,-0.5451,-0.545,-0.5405,-0.5414,-0.5408,-0.5395,-0.535,-0.5348,-0.5347,-0.5343,-0.534,-0.5338,0,0,0,0,0,0,-0.5545,-0.5528,-0.5529,-0.5505,-0.5492,-0.5475,-0.5463,-0.5462,-0.5446,-0.5447,-0.5439,-0.5434,-0.541,-0.5401,-0.5412,-0.537,-0.5378,-0.5375,-0.5377,-0.5374,-0.5372,-0.5374,-0.5414,0,0,0,0,0,-0.5541,-0.5526,-0.5512,-0.5492,-0.5486,-0.5476,-0.5466,-0.5462,-0.5448,-0.5442,-0.543,-0.5415,-0.5397,-0.5385,-0.5368,-0.5341,-0.5336,-0.5329,-0.5327,-0.5326,-0.5323,-0.5306,-0.5303,-0.5341,-0.5341,-0.5341,0,0,-0.5533,-0.5523,-0.5513,-0.5491,-0.5481,-0.5464,-0.5471,-0.5453,-0.544,-0.5439,-0.5415,-0.5406,-0.5389,-0.5363,-0.5351,-0.5354,-0.5311,-0.5324,-0.5322,-0.532,-0.5304,-0.5301,-0.5298,-0.534,-0.534,-0.534,0,0,-0.551,-0.5502,-0.5484,-0.5473,-0.5458,-0.5451,-0.5447,-0.5431,-0.5425,-0.5402,-0.54,-0.5384,-0.5354,-0.5342,-0.5331,-0.5304,-0.5303,-0.5299,-0.5287,-0.5272,-0.5269,-0.5266,-0.5255,-0.5251,-0.5297,-0.5296,-0.5296,0,-0.5502,-0.5478,-0.5474,-0.5456,-0.5446,-0.5446,-0.5427,-0.5417,-0.5396,-0.5388,-0.5393,-0.5355,-0.5343,-0.5314,-0.5308,-0.53,-0.5293,-0.53,-0.527,-0.5267,-0.5264,-0.5254,-0.525,-0.5296,-0.5296,-0.5296,-0.5296,0,-0.5468,-0.5451,-0.5439,-0.542,-0.5409,-0.539,-0.5382,-0.5371,-0.5369,-0.5361,-0.5337,-0.5323,-0.5303,-0.5296,-0.5293,-0.5266,-0.5269,-0.5272,-0.5279,-0.526,-0.525,-0.5246,-0.5295,-0.5296,-0.5296,-0.5296,0,0,-0.5439,-0.542,-0.5415,-0.5406,-0.539,-0.5376,-0.5358,-0.5339,-0.5329,-0.5315,-0.5298,-0.5273,-0.5276,-0.5264,-0.526,-0.5247,-0.5225,-0.5251,-0.5251,-0.5245,-0.5192,-0.5189,-0.5184,-0.5225,-0.5224,-0.5223,-0.5193,0,-0.5413,-0.5381,-0.5377,-0.5348,-0.5332,-0.5333,-0.5316,-0.5304,-0.5297,-0.5281,-0.5273,-0.5255,-0.5261,-0.5253,-0.5241,-0.523,-0.5214,-0.5233,-0.5207,-0.5206,-0.5209,-0.5179,-0.5175,-0.5147,-0.5189,-0.5189,-0.5188,0,-0.5377,-0.5364,-0.5334,-0.5319,-0.5313,-0.5298,-0.5281,-0.5267,-0.5252,-0.5248,-0.5235,-0.5233,-0.5212,-0.5223,-0.5193,-0.5206,-0.5196,-0.5189,-0.5188,-0.5183,-0.5194,-0.5172,-0.5138,-0.5133,-0.5182,-0.5183,-0.5183,0,-0.5357,-0.5332,-0.531,-0.5303,-0.5286,-0.5276,-0.5268,-0.5255,-0.5244,-0.5228,-0.5221,-0.5203,-0.5193,-0.5178,-0.5171,-0.5179,-0.5141,-0.5151,-0.5135,-0.5135,-0.5125,-0.5126,-0.5088,-0.5122,-0.5122,-0.5123,-0.5123,0,-0.5327,-0.5308,-0.5301,-0.5287,-0.5266,-0.5262,-0.524,-0.5233,-0.5221,-0.5205,-0.5204,-0.5189,-0.5181,-0.5164,-0.5158,-0.5134,-0.513,-0.5124,-0.5122,-0.5123,-0.5123,-0.5114,-0.5115,-0.5121,-0.5122,-0.5122,-0.5122,0,-0.53,-0.5295,-0.5271,-0.5258,-0.5254,-0.5238,-0.5226,-0.5213,-0.5207,-0.5186,-0.5181,-0.5171,-0.5151,-0.5143,-0.5118,-0.5114,-0.5086,-0.5087,-0.5091,-0.509,-0.5074,-0.5075,-0.5027,-0.502,-0.5061,-0.5061,-0.5061,0,-0.528,-0.5265,-0.5251,-0.5241,-0.5234,-0.5217,-0.5207,-0.5202,-0.5191,-0.5174,-0.5162,-0.5143,-0.5127,-0.5095,-0.5084,-0.5065,-0.5064,-0.5049,-0.5061,-0.5062,-0.5061,-0.5061,-0.5059,-0.5046,-0.5045,-0.5045,-0.5045,0,-0.5244,-0.5242,-0.5228,-0.5212,-0.52,-0.5187,-0.5174,-0.5166,-0.5159,-0.5146,-0.5127,-0.5115,-0.5091,-0.5071,-0.5052,-0.5042,-0.5041,-0.5042,-0.5036,-0.5035,-0.5038,-0.5034,-0.5083,-0.5042,-0.5042,-0.5042,-0.5042,-0.5043,-0.5218,-0.5205,-0.5193,-0.5177,-0.5167,-0.5156,-0.5142,-0.5135,-0.5119,-0.51,-0.5098,-0.5077,-0.5063,-0.5037,-0.5027,-0.5009,-0.5013,-0.5006,-0.5004,-0.5002,-0.5,-0.5043,-0.5006,-0.5006,-0.5006,-0.5006,-0.5006,0,-0.5181,-0.5174,-0.5159,-0.5142,-0.5128,-0.5132,-0.5118,-0.5106,-0.5088,-0.5076,-0.5061,-0.5038,-0.5019,-0.5008,-0.4988,-0.4976,-0.4975,-0.4971,-0.4971,-0.4968,-0.4999,-0.5004,-0.4972,-0.4972,-0.4972,-0.4972,-0.4972,-0.4972,-0.5159,-0.5137,-0.5134,-0.5107,-0.51,-0.508,-0.5072,-0.506,-0.505,-0.5026,-0.5011,-0.5004,-0.4991,-0.4971,-0.4954,-0.4951,-0.4943,-0.4938,-0.4935,-0.4963,-0.4966,-0.4969,-0.4974,-0.4937,-0.4937,-0.4905,-0.4905,-0.4905]}]]